Location: ICStars Ranch
(38.8297°N, 93.7687°W)
Time: 00:33:00
(UTC-05:00)

Daily predictions for brighter satellites

Satellite Brightness Start Highest point End
(mag) Time Altitude Azimuth Time Altitude Azimuth Time Altitude Azimuth
ADEOS II 3.8 03:59:53 10° NE 04:04:19 27° E 04:05:00 26° ESE
Cosmos 1607 4.5 04:07:23 56° NE 04:07:23 56° NE 04:12:20 10° NNE
Resurs 1-4 Rocket 4.2 04:20:09 10° N 04:21:30 17° NNW 04:21:30 17° NNW
USA 238 DEB 4.4 04:36:36 31° SSE 04:39:29 48° ESE 04:46:08 10° NE
USA 238 4.4 04:36:40 31° SSE 04:39:36 48° ESE 04:46:14 10° NE
BREEZE-M R/B 4.4 04:48:19 43° E 04:48:19 43° E 04:53:21 10° ENE
Cosmos 2263 Rocket 2.5 04:50:25 50° NW 04:50:25 50° NW 04:55:15 10° NNE
Cosmos 1743 4.1 04:49:28 10° N 04:53:09 39° E 04:56:49 10° SSE
Meteor 1-18 Rocket 4.2 04:56:36 66° WSW 04:56:57 67° W 05:02:52 10° N
CZ-2D R/B 4.3 05:04:25 10° NNW 05:04:41 11° NNW 05:04:41 11° NNW
ATLAS 5 CENTAUR R/B 4.3 05:05:33 10° NNW 05:10:37 28° NE 05:16:05 10° ESE
ATLAS 3B R/B 2.8 05:09:15 33° SSW 05:12:59 89° WNW 05:20:11 10° NNE
ASTEX 1 3.8 05:10:52 10° N 05:15:02 44° WNW 05:15:02 44° WNW
Atlas Centaur 2 3.0 05:16:11 34° SSW 05:17:19 37° S 05:22:19 10° ESE
ATLAS CENTAUR R/B 3.4 05:21:52 10° SSE 05:25:01 23° ESE 05:28:03 10° ENE
Okean O Rocket 1.4 05:24:15 10° N 05:28:37 84° WNW 05:31:20 23° SSW
Meteor 2-11 Rocket 4.3 05:23:31 10° S 05:29:35 86° W 05:35:42 10° N
CZ-4B R/B 2.8 05:26:49 10° N 05:30:46 56° WNW 05:31:14 52° WSW
Cosmos 1844 4.4 05:25:38 10° S 05:31:02 53° ESE 05:36:32 10° NNE
Delta 2 Rocket 4.3 05:29:54 35° SW 05:31:59 57° S 05:37:36 10° E
Cosmos 1814 Rocket 4.0 05:28:40 10° NNW 05:33:51 82° ENE 05:39:04 10° SSE
Meteor 1-13 Rocket 4.2 05:28:51 10° SSW 05:34:48 79° W 05:40:45 10° N
Tiangong 1 2.7 05:36:08 20° SSE 05:36:08 20° SSE 05:37:14 10° SE
CZ-4B R/B 3.1 05:30:16 10° NNE 05:35:36 88° ESE 05:40:57 10° SSW
Cosmos 724 4.4 05:32:02 17° SSW 05:36:57 85° ESE 05:43:00 10° NNE
S3M 4.2 05:32:56 10° S 05:39:10 76° E 05:45:31 10° N
ADEOS II 2.7 05:39:18 10° N 05:44:02 35° WNW 05:45:56 27° WSW
Meteor 2-4 Rocket 3.7 05:38:51 10° S 05:44:26 88° WNW 05:50:12 10° N
IRS-1C Rocket 4.0 05:40:36 10° NNE 05:45:54 83° WNW 05:51:11 10° SSW
DELTA 2 R/B (1) 3.6 05:44:36 26° W 05:47:45 67° SSW 05:53:16 10° ESE
CZ-4B R/B 4.0 05:46:19 10° NNE 05:50:18 78° ESE 05:54:27 10° S
Cosmos 1900 4.4 05:46:50 10° NNW 05:52:00 88° NE 05:57:04 10° SSE
PSLV R/B 4.2 05:50:28 10° N 05:54:12 32° WNW 05:55:49 24° WSW
CZ-2C R/B 3.8 05:50:22 10° SSE 05:55:04 85° ENE 05:59:52 10° NNW
Meteor 2-9 Rocket 4.1 05:52:45 10° NNW 05:58:13 76° W 06:03:47 10° S
Cosmos 371 Rocket 4.0 05:54:37 10° NW 05:58:51 30° W 06:03:02 10° SSW
NOSS 3-2 (A) 3.4 05:57:56 10° SSW 06:03:52 88° WNW 06:10:24 10° NNE
MTI 4.0 06:00:39 10° SSE 06:03:53 72° ENE 06:07:08 10° N
Cosmos 841 Rocket 3.4 06:01:22 10° NNW 06:06:34 78° WSW 06:11:46 10° SSE
Cosmos 1455 Rocket 4.2 06:07:47 10° NW 06:11:02 21° W 06:14:16 10° SW
Cosmos 2278 Rocket 2.9 06:06:03 10° S 06:11:34 57° ESE 06:17:07 10° NNE
COSMOS 2406 3.2 06:06:43 10° NNW 06:12:30 75° WSW 06:18:14 10° SSE
Cosmos 1666 3.8 06:09:49 10° NW 06:12:52 23° W 06:15:54 10° SW
EO 1 Del DPAF 3.3 06:09:33 10° SSE 06:13:22 83° ENE 06:17:12 10° N
Landsat 4 4.0 06:10:00 10° S 06:13:38 44° W 06:17:19 10° NNW
Cosmos 1515 3.7 06:10:52 10° S 06:14:40 86° E 06:18:31 10° N
Cosmos 1486 Rocket 4.3 06:12:36 10° SW 06:17:36 44° WNW 06:22:37 10° N
Cosmos 540 Rocket 4.0 06:12:39 10° NNW 06:17:47 65° ENE 06:22:53 10° SSE
Lacrosse 4 Rocket 3.7 06:17:48 10° N 06:21:28 27° NE 06:25:03 10° ESE
Meteor 1-4 Rocket 4.1 06:21:16 10° NW 06:23:21 15° W 06:25:24 10° SW
BREEZE-M DEB 4.2 06:21:28 12° SW 06:24:03 86° NW 06:28:05 10° NE
Cosmos 1844 Rocket 3.1 06:18:47 10° SW 06:24:06 42° WNW 06:29:30 10° N
Cosmos 1763 Rocket 4.0 06:19:36 10° NW 06:24:31 39° WSW 06:29:25 10° S
Meteor 1-31 Rocket 3.4 06:22:38 10° N 06:26:09 33° WNW 06:29:36 10° SW
ASTRO E2 4.1 06:26:54 10° WSW 06:30:21 28° S 06:33:49 10° ESE
USA 238 DEB 4.4 06:24:15 10° WSW 06:30:35 36° NW 06:36:59 10° NNE
USA 238 4.4 06:24:21 10° WSW 06:30:41 37° NW 06:37:06 10° NNE
SKYMED 2 3.7 06:27:29 10° SSE 06:31:49 84° ENE 06:36:10 10° N
Lacrosse 5 rocket 3.9 06:31:07 10° N 06:32:23 11° NNE 06:33:37 10° NE
Okean-O 2.6 06:31:24 10° N 06:35:47 65° WNW 06:40:10 10° SSW
Cosmos 304 Rocket 4.3 06:34:27 10° NW 06:38:54 38° WSW 06:43:19 10° S
Okean 2 3.8 06:36:30 10° SSW 06:40:22 42° W 06:44:17 10° N
IDEFIX/ARIANE 42P 3.2 06:35:51 10° NNE 06:41:07 65° ESE 06:46:19 10° S
CZ-3 Stage 3 4.3 06:38:24 10° SW 06:42:15 37° SSE 06:56:50 10° E
Meteor 1-28 Rocket 3.6 06:39:13 10° SSW 06:42:43 39° W 06:46:16 10° NNW
Cosmos 1726 Rocket 3.7 06:39:47 10° N 06:44:08 84° E 06:48:28 10° S
Meteor 1-15 Rocket 4.4 06:40:01 10° NNW 06:45:23 47° W 06:50:40 10° SSW
